COSMOS 2010

Satellite information

Favourite Embed

Satellite Type and Status

PAYLOADIN ORBIT

Key statistics

Satellite COSMOS 2010 at a glance.

Uptime

13255

Days in orbit

Revolutions

≈ 12.5

Per day

Orbit

LEO

Low Earth Orbit

Inclination

74.0

Latest

Satellite identification and parameters

Extended collection of information and parameters for COSMOS 2010.

Object identification

Identified? True

Debris? False

Object name: COSMOS 2010

International designator: 1989-025C

Object number (NORAD): 19904

Object ID (CCSDS): 19904

Country: COMMONWEALTH OF INDEPENDENT STATES (CIS)

Current information (Y/N): Y

RCS size: MEDIUM

Orbital parameters

Period: 114.826 minutes

Inclination: 74.0104 deg

SMA: 7825.67 km

Apoapsis: 1471.68 km

Periapsis: 1423.391 km

RAAN: 269.6926 deg

Eccentricy: 0.0030853

Argument of periapsis: 224.4331 deg

Mean anomaly: 240.6856 deg

Mean motion: 12.54066143 rev/day

Mean motion (dot): -0.00000013 rev/day2

B* drag term: 0.000022963 1/REarth

Two-line elements (TLE)

Creation date: July 7, 2025, 2:16 p.m.

Reference frame: TEME

Reference center: EARTH

Epoch: July 7, 2025, 1:34 p.m. UTC

TLE line 0: 0 COSMOS 2010

TLE line 1: 1 19904U 89025C 25188.56547279 -.00000013 00000-0 22963-4 0 9997

TLE line 2: 2 19904 74.0104 269.6926 0030853 224.4331 240.6856 12.54066143575021

Live tracking on map

Real-time ground track for satellite COSMOS 2010.

In-orbit conjunctions

A list of the most updated potential collisions computed for object COSMOS 2010.

Target Orbit TCA Probability of collision Miss distance Type
COSMOS 1256 LEO 2024-07-30 16:40:17 0.0004778976 44.0 (m) PAYLOAD
DELTA 1 DEB SSO 2024-06-02 23:10:21 0.0001010249 432.0 (m) DEBRIS

Associated space launch

Military communications satellites

COSMOS 2010 was lifted into orbit during the mission ‘Kosmos-3M | Strela-1M 337-344’, on board a Kosmos-3M space rocket.

The launch took place on March 24, 1989, 1:38 p.m. from 132/2.

For more information about the launch, click the button.

Launch to space Kosmos-3M | Strela-1M 337-344
Kosmos-3M | Strela-1M 337-344

Agency: N/A

Status: Launch Successful

Launch date: March 24, 1989, 1:38 p.m. UTC

Rocket: Kosmos-3M

Launch pad: 132/2

Location: Plesetsk Cosmodrome, Russian Federation

...

Latest news about this satellite

There are no fresh news available about this satellite. Check back as we update our databases every day.


Newsletter sign-up

Weekly statistics, charts and insights to help you stay on top of the space industry.